Погода в Мужи

Погода в Мужи : погода сейчас, прогноз погоды и архив. Всё, что Вы хотите узнать о погоде в Мужи!

Хотите узнать прогноз погоды в Мужи? Тогда Вам сюда: Погода в Мужи

Поиск расширенной информации на нашем сайте:

Другие новости

Новости СМИ2

Главная страница сайта

Новости сайта

02.10.2013

Напоминаем, что на нашем новом сайте вы можете получить высокодетализированные прогнозы погоды по пунктам России, СНГ и мира (включающие важные для авиации метеовеличины, такие как направление и скорость ветра, видимость, явления погоды, количество и форма облачности, нижняя и верхняя граница облачности), а также ознакомиться с разнообразными материалами по авиационной метеорологии и подборкой полезных ссылок на эту тему.

Сайт Метеоцентр.Азия посвящён разработке технологий оптимизации авиаметеорологического обслуживания, включая проектирование и перспективное создание нескольких автоматизированных авиаметеорологических систем:
- система выпуска высокодетальных прогностических карт явлений погоды для нижнего воздушного пространства по России и ближнему зарубежью;
- система верификации прогнозов TAF (выпускаемых синоптиками официальных АМСГ РФ и ближнего зарубежья) и AUTOTAF (выпускаемых сайтом Метеоцентр.Азия) - выявление ошибок, онлайн-сопоставление с фактической погодой METAR, автоматическое внесение коррективов в прогнозы при резком отклонении фактической погоды от прогноза, подсчёт оправдываемости прогнозов по элементам и в целом;
- система обработки, анализа и отображения авиаметеорологической информации для применения провайдерами метеорологической информации.

Рекомендуем: Автоматический выключатель трехполюсный купить автоматический трехполюсный выключатель.

Погода в Мужи - сегодня

Время (UTC), дата Ветер
(°,м/с) 
Видим.   Явления Облачность Т
(°С)
Тd
(°С)
f(%) Тe
(°С)
Pmin
(гПа)
dP
(гПа)
Po
(мм)
O2
(г/м3)
Тmin Tmax R s Состояние
почвы
12 24.02.17 290 (З) 83  2600 м    5/3 300 м средняя 
[Ac trans]
-24.4 -28.1 71 -48  1022.7  0.5  765  340           
15 24.02.17 020 (С) 50000 м    ясно 
-26.5 -30.1 72 -30  1023.5  0.8  766  344    -22.3       
18 24.02.17 360 (С) 50000 м    ясно 
-28.4 -32.3 69 -32  1023.4  -0.1  766  346           
21 24.02.17 360 (С) 50000 м    ясно 
-28.8 -32.9 68 -32  1023.7  0.3  766  347           
00 25.02.17 350 (С) 10 км  слаб. снег  10/0 средняя 
[As op]
-28 -31.8 70 -33  1022.8  -0.9  765  345           
03 25.02.17 010 (С) 8000 м  слаб. снег  10/0 средняя 
[As op]
-25.9 -29.7 70 -31  1022.1  -0.7  765  342  -29.2    0.6  38  неравномерный
сухой снег
100% 
06 25.02.17 360 (С) 12000 м  слаб. снег  10/0 средняя 
[As op]
-22.9 -26.3 74 -28  1021.4  -0.7  764  338           
09 25.02.17 350 (С) 14000 м  слаб. снег  10/0 средняя, верхняя 
[Ac As|Ci fib]
-20.4 -23.7 75 -25  1020.6  -0.7  764  334           
12 25.02.17 010 (С) 17000 м  слаб. снег  10/0 средняя, верхняя 
[Ac As|Ci fib]
-19.3 -22.4 76 -24  1019.1  -1.5  762  332           
15 25.02.17 360 (С) 9000 м  слаб. снег  10/0 средняя 
[As op]
-18.4 -21.3 78 -21  1017.1  -2  761  330    -18.4     
18 25.02.17 010 (С) 13000 м  слаб. снег  10/0 средняя 
[As op]
-16.2 -18.8 80 -16  1015.1  -1.9  759  327           
21 25.02.17 060 (СВ) 8000 м  слаб. снег  10/0 средняя 
[As op]
-14.9 -17.5 81 -17  1012.8  -2.4  758  324           
00 26.02.17 220 (ЮЗ) н/о    н/о 
-14 -16.4 82 -14  1010.3  -2.4  756  322           
03 26.02.17 080 (В) 55000 м  {снег}  10/0 средняя 
[Ac As]
-14.1 -16.8 80 -16  1008.5  -1.8  755  322  -18.4    0.7  43  неравномерный
сухой снег
100% 
06 26.02.17 120 (ЮВ) 2200 м  слаб. снег  10/0 средняя 
[As op]
-11.6 -13.9 83 -11  1005.8  -2.7  752  318           
09 26.02.17 130 (ЮВ) 2200 м  слаб. снег  10/0 средняя 
[As op]
-8.7 -11.2 82 -8  1003.8  -1.9  751  314           
12 26.02.17 070 (В) 5000 м  слаб. снег  10/0 средняя 
[As op]
-8.9 -11.4 82 -11  1001.7  -2.2  749  313           
15 26.02.17 070 (В) 2100 м  слаб. снег  10/0 средняя 
[As op]
-9 -10.6 88 -11  997.3  -4.4  746  312    -8.3     
18 26.02.17 080 (В) 1800 м  снег  10/0 средняя 
[As op]
-9.1 -10.6 89 -9  992.3  -5  742  310           
21 26.02.17 040 (СВ) 1800 м  снег  10/0 средняя 
[As op]
-8.3 -9.6 90 -8  988.7  -3.5  740  308           
00 27.02.17 210 (ЮЗ) 19000 м  слаб. снег  10/0 средняя 
[As op]
-8.2 -9.4 91 -8  987.6  -1.1  739  308           
03 27.02.17 200 (Ю) 45000 м  позёмок{снег}  6/0 средняя, верхняя 
[As op|Ci fib]
-8.7 -10.6 86 -13  990.4  2.8  741  309  -9.2    56  неравномерный
сухой снег
100% 
06 27.02.17 180 (Ю) 4{10}  8000 м  слаб. снег  8/0 средняя 
[As op]
-9.2 -11.6 83 -13  993  2.5  743  311  -9.8         
09 27.02.17 190 (Ю) 5-10{12}  45000 м  позёмок{ливн. осадки, снег}  6/6 600 м кучево-дожд. 
[Cb cap]
-7.3 -12.4 67 -12  994.1  1.1  744  309           
12 27.02.17 170 (Ю) 4{12}  60000 м  позёмок{ливн. осадки, снег}  4/4 600 м кучево-дожд. 
[Cb cap]
-8 -13.2 66 -12  994.6  0.6  744  310           
Время (UTC), дата Ветер
(°,м/с) 
Видим.   Явления Облачность Т
(°С)
Тd
(°С)
f(%) Тe
(°С)
Pmin
(гПа)
dP
(гПа)
Po
(мм)
O2
(г/м3)
Тmin Tmax R s Состояние
почвы

Для получения пояснительной информации подведите курсор к названию столбца.

ПОГОДА в Мужи - архив

Всё, что Вы хотите узнать о погоде в Мужи - удобно и подробно!

Выберите нужную дату (начиная с 1 января 2015* года) и нажмите кнопку "Найти".
Будут отображены архивные сводки погоды по пункту Мужи, начиная с указанной даты.


Отображать данные в формате CSV (для использования в таблицах Excel)


Внимание! Наш архив погоды предназначен исключительно для личного некоммерческого использования в познавательных целях. Если Вам необходимы официальные справки о состоянии погоды (для производственных, юридических, коммерческих и т.п. целей), обращайтесь в органы Росгидромета.

*Примечание: данная дата относится к архиву по метеостанциям СССР (Россия, СНГ, Балтия).
Архив по метеостанциям Зарубежной Европы и Азии (кроме Китая) хранится 10 дней, по другим регионам земного шара (Китай, Африка, Америка, Австралия, Океания) - 1 день.

Мужи - район местоположения метеостанции


Название, широта, долгота, высота метеостанции:
Мужи 65.4°ш. 64.7°д. 19 м над ур. моря [Российская Федерация]

Дополнительная информация

В oтличие oт бoльшинства пoгoдных сайтoв мы публикуем пoдрoбную метеoинфoрмацию в детальнoм прoфессиoнальнoм фoрмате.

Характеристики температуры и влажнoсти вoздуха измеряются на высoте 2 м в тени вдали oт зданий и деревьев.
Скoрoсть ветра измеряется на высoте 10 м (на урoвне рoста челoвека скoрoсть ветра ниже в 1.5-2 раза). Если метеoстанция нахoдится в гoрoде или в лесу, тo скoрoсть ветра занижена на 2-4 м/с пo сравнению с oткрытым местoм. Скoрoсть ветра над акватoриями крупных рек и oзёр, а также на вершинах хoлмoв на 2-5 м/с выше, чем в oбычных услoвиях.
Атмoсфернoе давление в разных тoчках местнoсти мoжет значительнo oтличаться oт давления на метеoстанции, в зависимoсти oт услoвий рельефа (при пoдъёме на 10 м давление пoнижается примернo на 1 мм рт.ст.).